GW1765 Weather Reports


time (UTC)temp
C
wind
direction
speed
KPH
gust
KPH
rain 1hr
cm
rain 24hr
cm
rain mn
cm
humidity
%
barometer
mb
20260509160042 11 248 1.6 8.0 0.00 0.15 0.05 97 1003.2
20260509155041 11 226 4.8 9.7 0.05 0.15 0.05 97 1003.2
20260509154036 11 214 8.0 17.7 0.05 0.15 0.05 97 1003.2
20260509153032 11 236 16.1 25.7 0.05 0.15 0.05 97 1003.5
20260509152028 11 199 6.4 19.3 0.05 0.15 0.05 97 1003.5
20260509151025 12 231 8.0 12.9 0.05 0.15 0.05 97 1003.5
20260509150021 11 234 8.0 24.1 0.05 0.15 0.05 97 1003.5
20260509145018 11 232 0.0 3.2 0.00 0.10 0.00 97 1003.6
20260509144114 12 221 3.2 6.4 0.00 0.10 0.00 97 1003.6
20260509143153 12 233 4.8 8.0 0.00 0.10 0.00 97 1003.8
20260509142108 12 236 4.8 11.3 0.00 0.10 0.00 96 1003.8
20260509141104 12 237 3.2 6.4 0.00 0.10 0.00 96 1003.8
20260509140122 12 279 1.6 4.8 0.00 0.10 0.00 96 1003.9
20260509135120 11 291 3.2 6.4 0.00 0.10 0.00 95 1003.8
20260509134054 11 305 3.2 6.4 0.00 0.10 0.00 94 1003.7
20260509133050 12 270 4.8 6.4 0.00 0.10 0.00 94 1003.7
20260509132046 11 280 4.8 8.0 0.00 0.10 0.00 93 1003.8
20260509131042 11 261 3.2 6.4 0.00 0.10 0.00 92 1003.9
20260509130040 11 142 1.6 4.8 0.00 0.10 0.00 92 1003.8
20260509125036 11 213 4.8 8.0 0.00 0.10 0.00 92 1003.7
20260509124032 11 229 6.4 12.9 0.00 0.10 0.00 91 1003.8
20260509123029 11 231 4.8 11.3 0.00 0.10 0.00 91 1003.8
20260509122025 11 209 4.8 9.7 0.00 0.10 0.00 90 1003.8
20260509121022 11 261 3.2 17.7 0.00 0.10 0.00 90 1003.9
20260509120018 11 176 3.2 6.4 0.00 0.10 0.00 89 1004.0
20260509115119 11 217 3.2 6.4 0.00 0.10 0.10 88 1004.0
20260509114111 11 180 4.8 11.3 0.00 0.13 0.10 87 1004.0
20260509113108 10 190 3.2 11.3 0.00 0.13 0.10 86 1004.0
20260509112147 11 135 3.2 4.8 0.00 0.13 0.10 86 1004.0
20260509111101 11 121 1.6 4.8 0.00 0.13 0.10 85 1004.1
20260509110058 11 143 1.6 3.2 0.00 0.13 0.10 85 1004.2
20260509105115 11 79 1.6 3.2 0.00 0.13 0.10 85 1004.0
20260509104050 11 165 1.6 3.2 0.00 0.13 0.10 85 1004.0
20260509103049 11 180 0.0 3.2 0.00 0.13 0.10 85 1004.0
20260509102045 11 0.0 1.6 0.00 0.13 0.10 85 1004.0
20260509101040 11 0.0 1.6 0.00 0.13 0.10 84 1004.1
20260509100037 11 252 0.0 3.2 0.00 0.13 0.10 84 1004.0
20260509095034 11 245 1.6 4.8 0.00 0.13 0.10 85 1003.8
20260509094031 11 229 1.6 3.2 0.00 0.13 0.10 85 1003.8
20260509093029 11 264 1.6 6.4 0.00 0.13 0.10 84 1003.7
20260509092023 11 252 0.0 3.2 0.00 0.15 0.10 85 1003.6
20260509091021 11 90 1.6 3.2 0.00 0.23 0.10 85 1003.6
20260509090036 11 65 1.6 4.8 0.00 0.46 0.10 86 1003.7
20260509085112 11 96 1.6 4.8 0.00 0.64 0.10 86 1003.7
20260509084129 11 82 1.6 4.8 0.00 0.84 0.10 85 1003.7
20260509083106 11 90 3.2 6.4 0.00 1.04 0.10 85 1003.7
20260509082124 11 125 1.6 4.8 0.00 1.09 0.10 85 1003.6
20260509081100 11 170 1.6 3.2 0.00 1.09 0.10 86 1003.6
20260509080055 12 196 4.8 8.0 0.00 1.09 0.10 86 1003.7
20260509075052 12 222 3.2 8.0 0.00 1.09 0.10 85 1003.6
20260509074048 12 254 0.0 3.2 0.00 1.17 0.10 84 1003.9
20260509073108 12 225 1.6 6.4 0.00 1.30 0.10 84 1003.7
20260509072041 12 225 4.8 9.7 0.00 1.37 0.10 83 1003.5
20260509071037 12 221 1.6 8.0 0.00 1.37 0.10 83 1003.5
20260509070035 12 207 0.0 3.2 0.00 1.37 0.10 83 1003.5
20260509065031 12 215 1.6 3.2 0.00 1.37 0.10 82 1003.3
20260509064110 12 233 4.8 6.4 0.00 1.45 0.10 82 1003.2
20260509063024 12 231 3.2 6.4 0.00 1.50 0.10 82 1003.1
20260509062022 13 225 1.6 11.3 0.00 1.50 0.10 82 1003.1
20260509061016 13 225 1.6 4.8 0.00 1.50 0.10 82 1002.9
20260509060114 13 235 4.8 11.3 0.00 1.50 0.10 82 1002.9
20260509055109 13 229 6.4 12.9 0.00 1.50 0.10 83 1002.8
20260509054106 13 234 6.4 12.9 0.00 1.50 0.10 83 1002.8
20260509053104 13 244 6.4 14.5 0.00 1.50 0.10 82 1002.7
20260509052059 14 242 3.2 8.0 0.00 1.55 0.10 82 1002.7
20260509051056 14 205 3.2 11.3 0.00 1.55 0.10 81 1002.7
20260509050052 14 255 3.2 6.4 0.00 1.55 0.10 80 1002.8
20260509045048 15 243 3.2 6.4 0.00 1.60 0.10 79 1002.8
20260509044046 15 289 4.8 12.9 0.00 1.60 0.10 78 1002.9
20260509043044 16 271 8.0 14.5 0.00 1.63 0.10 79 1002.9
20260509042038 16 255 3.2 8.0 0.00 1.65 0.10 81 1002.9
20260509041034 16 278 3.2 8.0 0.00 1.65 0.10 80 1002.8
20260509040052 16 259 4.8 8.0 0.00 1.65 0.10 81 1002.9
20260509035028 16 267 8.0 14.5 0.00 1.68 0.10 81 1002.9
20260509034024 17 238 8.0 17.7 0.00 1.68 0.10 84 1002.9
20260509033021 16 247 6.4 12.9 0.00 1.68 0.10 84 1002.8
20260509032017 15 248 4.8 11.3 0.00 1.68 0.10 83 1002.9
20260509031135 15 301 9.7 19.3 0.00 1.68 0.10 83 1003.1
20260509030111 15 297 11.3 19.3 0.00 1.68 0.10 83 1003.2
20260509025107 15 308 11.3 22.5 0.00 1.68 0.10 84 1003.1
20260509024103 16 247 6.4 11.3 0.00 1.68 0.10 85 1003.2
20260509023059 16 245 8.0 17.7 0.00 1.68 0.10 85 1003.1
20260509022055 15 261 8.0 14.5 0.00 1.68 0.10 85 1003.1
20260509021052 16 281 8.0 16.1 0.00 1.68 0.10 85 1003.2
20260509020049 16 270 3.2 6.4 0.00 1.68 0.10 89 1003.1
20260509015047 16 270 4.8 16.1 0.00 1.68 0.10 89 1003.2
20260509014041 15 276 11.3 19.3 0.00 1.68 0.10 89 1003.1
20260509013039 16 278 8.0 14.5 0.00 1.68 0.10 91 1003.0
20260509012035 15 261 8.0 17.7 0.00 1.68 0.10 92 1003.0
20260509011031 15 264 8.0 17.7 0.00 1.68 0.10 93 1003.1
20260509010027 15 242 6.4 14.5 0.00 1.68 0.10 94 1003.4
20260509005025 15 280 9.7 24.1 0.00 1.68 0.10 95 1003.5
20260509004020 15 294 14.5 24.1 0.00 1.68 0.10 96 1003.6
20260509003016 15 274 16.1 25.7 0.00 1.68 0.10 96 1003.6
20260509002115 15 297 16.1 30.6 0.00 1.68 0.10 96 1003.8
20260509001110 15 306 19.3 29.0 0.00 1.68 0.10 97 1003.8
20260509000131 15 313 22.5 33.8 0.00 1.68 0.10 98 1004.0
20260508235104 15 312 20.9 29.0 0.00 1.68 0.10 99 1004.2
20260508234120 15 313 20.9 32.2 0.00 1.68 0.10 99 1004.3
20260508233056 15 313 20.9 30.6 0.00 1.68 0.10 99 1004.3
20260508232115 14 311 17.7 29.0 0.03 1.68 0.10 99 1004.2
20260508231049 14 306 19.3 27.4 0.03 1.68 0.10 98 1004.3
20260508230046 14 315 19.3 27.4 0.03 1.68 0.10 97 1004.2
20260508225042 14 315 20.9 29.0 0.05 1.68 0.10 95 1004.3
20260508224041 14 321 25.7 38.6 0.05 1.68 0.10 94 1004.1
20260508223037 15 317 29.0 54.7 0.05 1.68 0.10 95 1003.9
20260508222031 14 318 27.4 38.6 0.03 1.65 0.05 95 1003.9
20260508221030 14 315 20.9 33.8 0.03 1.65 0.05 93 1003.9
20260508220026 14 299 25.7 37.0 0.03 1.65 0.05 91 1003.8
20260508215021 14 312 25.7 37.0 0.00 1.63 0.03 90 1003.7
20260508214018 15 315 27.4 35.4 0.00 1.63 0.03 91 1003.7
20260508213114 14 322 25.7 35.4 0.00 1.63 0.03 90 1003.7
20260508212111 14 315 30.6 43.5 0.00 1.63 0.03 87 1003.7
20260508211109 15 323 25.7 37.0 0.00 1.63 0.03 84 1003.7
20260508210104 15 337 30.6 40.2 0.00 1.63 0.03 85 1003.6
20260508205100 15 340 24.1 38.6 0.00 1.63 0.03 88 1003.5
20260508204058 14 343 24.1 32.2 0.00 1.63 0.03 92 1003.6
20260508203053 14 341 27.4 33.8 0.00 1.63 0.03 95 1003.7
20260508202050 14 321 22.5 32.2 0.00 1.63 0.03 97 1003.6
20260508201049 14 337 20.9 32.2 0.00 1.63 0.03 99 1003.5
20260508200045 14 323 20.9 29.0 0.00 1.63 0.03 99 1003.4
20260508195039 14 309 25.7 33.8 0.00 1.63 0.03 99 1003.4
20260508194036 14 345 22.5 30.6 0.00 1.63 0.03 99 1003.2
20260508193033 14 357 19.3 27.4 0.00 1.63 0.03 99 1003.3
20260508192052 13 354 14.5 22.5 0.00 1.63 0.03 99 1003.4
20260508191027 13 347 11.3 17.7 0.00 1.63 0.03 99 1003.5
20260508190022 13 0 11.3 19.3 0.03 1.63 0.03 99 1003.4
20260508185020 13 8 12.9 17.7 0.03 1.63 0.03 99 1003.4
20260508184038 13 357 11.3 16.1 0.03 1.63 0.03 99 1003.5
20260508183115 13 10 14.5 24.1 0.03 1.63 0.03 99 1003.3
20260508182111 13 345 20.9 27.4 0.03 1.63 0.03 99 1003.2
20260508181105 14 303 19.3 30.6 0.03 1.63 0.03 99 1003.2
20260508175058 14 330 19.3 32.2 0.00 1.60 0.00 99 1003.1
20260508174057 14 320 22.5 32.2 0.00 1.60 0.00 99 1002.9
20260508173051 15 319 29.0 40.2 0.00 1.60 0.00 99 1003.1
20260508172049 15 314 30.6 41.8 0.00 1.60 0.00 99 1003.0
20260508171044 15 351 25.7 33.8 0.00 1.60 0.00 99 1002.7
20260508170040 15 332 24.1 40.2 0.00 1.60 0.00 99 1002.8
20260508165038 15 288 27.4 38.6 0.00 1.60 0.00 99 1002.9
20260508164033 15 330 27.4 35.4 0.00 1.60 0.00 99 1002.9
20260508163029 15 351 27.4 33.8 0.00 1.60 0.00 99 1002.8
20260508162047 15 323 19.3 30.6 0.00 1.60 0.00 99 1002.9
20260508161103 15 332 20.9 27.4 0.00 1.60 0.00 99 1003.0